Location: 5810 Zion Rd, Cleves, OH 45002, USA
(39.1922°N, 84.7113°W)
Time: 11:01:29
(UTC-05:00)

Vanguard 3 - Pass Details

Date: 21 December 2019
Orbit: 507 x 3264 km, 33.4° (Epoch: 28 January)

Event Time Altitude Azimuth Distance (km) Brightness Sun altitude
Rises 09:12:29 0° 269° (W) 3,393 9.9 11.3°
Reaches altitude 10° 09:14:37 10° 262° (W) 2,691 9.5 11.6°
Maximum altitude 09:20:51 45° 191° (S) 1,777 9.4 12.4°
Drops below altitude 10° 09:31:38 10° 124° (SE) 4,598 13.1 13.9°
Sets 09:36:29 0° 120° (ESE) 6,058 13.1 14.5°
